Terug naar catalogus

ARSAT 1

ActiefCommunicatieGEO
NORAD 40272·PAYLOAD·🇦🇷 Argentina

Gelanceerd Oct 16, 2014 vanaf Guiana Space Centre

Loading…

TLE

VersSource: Space-Track

Epoch: Sep 14, 2026, 14:56 UTC

1 40272U 14062B   26257.62280262 -.00000268  00000-0  00000-0 0  9995
2 40272   0.0246  65.9391 0001655  91.5029 348.5675  1.00271976 43520

Volg ARSAT 1 in realtime met AllMySat

Download on the App Store